User: anonymous   Login
Location: Unspecified
(0.0000°N, 0.0000°E)
Time: 21:12:39
(UTC+00:00)
Language:

NOSS 2-3 (E) - Orbit

View from above orbital plane
View from above orbital plane
View from above satellite
View from above satellite

Ground track
Ground track

The orbit data is extracted from the following two-line orbital elements,

1 23936U 96029E   19049.78116686 0.00000050  00000-0  24606-4 0    05
2 23936  63.3742 280.8020 0657798  17.1551 342.8449 13.40909221    07
Epoch (UTC): 18 February 2019 18:44:52
Eccentricity: 0.0657798
inclination: 63.3742°
perigee height: 613 km
apogee height: 1598 km
right ascension of ascending node: 280.8020°
argument of perigee: 17.1551°
revolutions per day: 13.40909221
mean anomaly at epoch: 342.8449°
orbit number at epoch: 0

The dashed part of the orbit path shows where the satellite is in the earth's shadow,  

DLR